Weather Roundup
Issued by NWS

Home | Current Version | Previous Version | Text Only | Print | Product List | Glossary On
Versions: 1 2 3 4 5 6 7 8 9 10 11 12 13 14 15 16 17 18 19 20 21 22 23 24 25 26 27 28 29 30 31 32 33 34 35 36 37 38 39 40 41 42 43 44 45 46 47 48 49 50
000
NZUS93 KARX 281710
HRRWXR

CURRENT HOURLY OBSERVATIONS ACROSS
MUCH OF THE UPPER MISSISSIPPI VALLEY
NATIONAL WEATHER SERVICE LA CROSSE WI
1200 PM CDT WED SEP 28 2016


...SOUTHEAST MINNESOTA...


CITY           SKY/WX    TMP DP  RH WIND       PRES   REMARKS
ROCHESTER      CLOUDY    56  51  84 N12       30.11R
ROCHESTER/MAYO CLOUDY    56  50  80 NW6       30.10S
WINONA         CLOUDY    59  50  72 N6        30.07S
AUSTIN         CLOUDY    57  48  72 N9        30.11R
ALBERT LEA     CLOUDY    57  48  72 N10G20    30.13R
DODGE CENTER   CLOUDY    55  48  76 N10G20    30.12R
PRESTON        CLOUDY    56  49  78 N17G23    30.08R
OWATONNA       CLOUDY    57  46  67 N15       30.14R
FARIBAULT      CLOUDY    57  48  72 NW10      30.15R
$$

...ELSEWHERE IN MINNESOTA...


CITY           SKY/WX    TMP DP  RH WIND       PRES   REMARKS
MINNEAPOLIS    CLOUDY    58  49  72 N12G23    30.17R
INTNL FALLS    CLOUDY    55  46  71 NE8       30.28R
DULUTH         CLOUDY    57  49  74 N9        30.21R
RED WING       CLOUDY    61  48  63 N8G21     30.11R
REDWOOD FALLS  CLOUDY    58  47  66 N9        30.21R
MANKATO        CLOUDY    56  48  74 N16       30.18R
WORTHINGTON    CLOUDY    51  45  79 N12       30.23R
FAIRMONT       CLOUDY    56  47  71 N13G21    30.19R
$$

...SOUTHWEST WISCONSIN...


CITY           SKY/WX    TMP DP  RH WIND       PRES   REMARKS
LA CROSSE      LGT RAIN  61  53  75 N15G22    30.05R
PRAIRIE DU CHI CLOUDY    58  49  72 N9        30.03R
BOSCOBEL       CLOUDY    59  49  69 N8        30.03R
LONE ROCK      CLOUDY    58  49  72 N10       30.02R
PLATTEVILLE    CLOUDY    58  51  78 N15G22    30.01R
FORT MC COY    CLOUDY    58  52  80 NE12      30.05R
CAMP DOUGLAS   PTSUNNY   59  50  72 N10       30.03R
MAUSTON-NEW LI CLOUDY    58  51  77 N9        30.02R
VIROQUA        CLOUDY    55  50  83 N12       30.04R
WIS DELLS      CLOUDY    56  49  80 N5        30.00R
$$

...ELSEWHERE IN WISCONSIN...


CITY           SKY/WX    TMP DP  RH WIND       PRES   REMARKS
MILWAUKEE      CLOUDY    58  50  75 N13       29.96R
MADISON        PTSUNNY   59  50  72 N13       29.98R
GREEN BAY      HVY RAIN  56  54  93 NE14G26   30.00R FOG
EAU CLAIRE     PTSUNNY   60  48  64 NE15      30.09R
BLACK RVR FLS  CLOUDY    58  51  76 N6        30.05R
MEDFORD        CLOUDY    56  50  82 N15G21    30.08R
WAUSAU         CLOUDY    58  47  66 NE9G20    30.05R
WIS RAPIDS     CLOUDY    61  50  67 NE10G20   30.04R
MARSHFIELD     CLOUDY    59  48  67 NE14G22   30.04R
RICE LAKE      PTSUNNY   59  49  68 N14G23    30.15R
$$

...NORTHEAST IOWA...


CITY           SKY/WX    TMP DP  RH WIND       PRES   REMARKS
WATERLOO       CLOUDY    59  48  67 N17G25    30.06R
DUBUQUE        CLOUDY    58  51  78 N15       30.01R
DECORAH        CLOUDY    55  52  88 N9        30.05R
MASON CITY     CLOUDY    57  48  72 N16G23    30.13R
CHARLES CITY   CLOUDY    57  50  77 N14G21    30.09R
OELWEIN        CLOUDY    57  48  72 N18G24    30.06R
$$

...ELSEWHERE IN IOWA...


CITY           SKY/WX    TMP DP  RH WIND       PRES   REMARKS
DES MOINES     CLOUDY    58  47  66 NW13      30.12R
IOWA CITY      CLOUDY    57  48  72 N8        30.05R
FORT DODGE     CLOUDY    55  46  71 N10       30.16S
MARSHALLTOWN   CLOUDY    59  48  67 N16G24    30.08R
CEDAR RAPIDS   CLOUDY    57  50  77 N16       30.03R
$$

...NORTHERN ILLINOIS...


CITY           SKY/WX    TMP DP  RH WIND       PRES   REMARKS
CHICAGO-OHARE  LGT RAIN  56  49  77 NE9       29.91R
CHICAGO-MIDWAY CLOUDY    56  50  80 N14       29.91R
MOLINE         CLOUDY    58  48  69 NW17      29.99R
ROCKFORD       CLOUDY    58  48  69 N13G23    29.98R
PEORIA         CLOUDY    56  46  69 N12G20    29.97R
$$

NOTE: "FAIR" INDICATES FEW OR NO CLOUDS BELOW 12,000 FEET WITH NO
SIGNIFICANT WEATHER AND/OR OBSTRUCTIONS TO VISIBILITY. WIND
SPEEDS ARE IN MILES-PER-HOUR.




USA.gov is the U.S. government's official web portal to all federal, state and local government web resources and services.